Helicity
182 180 145 117 85 80 103 124 126 127 141 153 151 152 179 197 107 76 26 -0 24 66 63 34 32 36 44 56 55 37 22 35 46 66 71 72 89 108 106 100 85 75 72
160 124 94 66 92 108 119 124 123 128 120 147 184 187 102 51 54 76 80 75 79 78 84 81 73 74 81 77 88 82 87 84 84 71 76 89 85 84 76 68 78 82 91
94 90 118 98 95 109 119 104 89 109 124 107 89 87 92 93 86 85 84 92 99 104 107 104 93 95 95 93 92 93 92 90 87 83 68 78 80 80 68 62 65 74 80
97 116 119 117 131 123 111 79 65 85 102 112 103 86 103 99 89 85 97 107 104 103 98 92 92 88 80 74 74 76 75 79 81 86 80 75 86 82 81 70 64 61 61
118 119 130 130 121 101 93 98 108 121 101 93 87 86 75 70 105 125 95 113 95 86 78 71 72 86 91 70 75 68 73 76 82 90 98 95 96 93 92 88 90 95 89
112 115 123 136 140 142 111 88 106 94 87 75 77 72 70 84 191 139 117 93 84 70 67 63 64 58 45 45 55 53 72 90 92 108 121 108 75 111 117 99 94 88 71
110 119 147 173 164 148 107 99 89 77 68 67 70 79 81 74 168 107 95 77 73 59 55 56 50 50 46 41 56 63 56 59 84 78 94 106 98 104 106 106 108 105 87
109 127 178 191 157 124 98 79 63 65 66 68 80 79 72 72 127 96 73 59 64 53 46 37 34 28 36 74 57 58 54 54 61 83 74 69 75 74 82 75 70 69 80
94 144 189 158 127 98 68 65 64 67 68 79 81 78 70 79 119 99 82 76 64 50 40 32 39 25 16 36 42 38 42 40 51 61 54 42 38 37 37 77 86 88 86
120 88 121 123 103 66 59 61 67 70 78 100 92 79 92 80 102 98 85 77 54 43 35 21 6 1 10 22 31 40 28 -4 20 66 81 52 37 29 29 50 53 62 68
108 105 92 112 83 58 64 69 75 80 89 118 98 94 75 108 71 64 66 69 59 36 13 4 -0 51 84 50 29 -20 -41 -32 -43 -45 -38 -45 -38 -20 23 54 64 89 64
110 97 102 99 76 72 70 76 79 84 116 122 114 111 100 96 64 68 45 38 29 1 -14 -23 7 26 -17 -6 -28 -22 -15 -22 -17 3 11 6 -4 -10 -8 34 49 54 62
120 114 96 89 81 75 80 79 84 97 142 125 116 109 82 79 65 56 27 25 -1 -18 -22 -25 -49 -26 -20 -38 -47 -4 12 -6 -2 4 8 8 3 -6 -4 21 32 32 32
115 100 82 81 96 74 90 90 95 130 144 118 117 99 89 71 67 49 27 -20 -2 -24 -22 -28 -26 -16 -19 -21 -5 2 5 11 11 14 10 12 19 29 42 42 35 29 38
111 80 78 88 87 83 83 97 96 123 157 129 114 101 95 80 61 3 -14 -8 -15 -7 8 -17 -8 -3 8 17 6 3 4 12 23 24 19 12 13 8 15 16 24 24 26
86 67 89 90 94 89 77 70 172 162 155 133 119 118 95 71 -9 -2 6 10 4 8 -15 -6 9 12 20 24 7 -10 -13 -0 22 44 39 31 13 -14 -11 21 30 23 22
57 73 80 84 81 81 71 67 75 124 173 144 128 106 80 26 -9 4 11 12 3 11 1 9 19 25 26 22 20 16 -9 -16 9 23 31 23 16 -10 -22 -17 13 29 35
44 74 65 71 75 73 67 65 76 96 97 101 141 121 85 -25 -12 4 14 -1 -10 -6 -0 8 20 31 39 32 24 23 28 8 -10 -18 6 21 14 2 -8 -28 -39 -31 -11
34 50 58 72 75 67 58 60 72 80 89 103 92 105 87 -42 -33 -11 5 -14 -9 -8 1 -0 4 30 34 21 19 21 26 19 11 1 -8 10 20 12 -5 -20 -32 -37 -23
35 61 58 70 70 63 57 59 68 71 76 94 91 84 27 -59 -39 -18 -16 -9 -7 -9 -4 -2 3 19 21 19 22 22 18 21 21 18 11 1 11 6 1 -0 -10 -15 -21
43 49 65 64 71 64 57 56 61 66 69 78 90 90 35 -77 -43 -25 -14 -5 2 5 4 3 6 14 14 14 12 14 16 12 9 14 19 14 4 2 3 -3 1 2 2
45 57 60 71 67 64 59 54 57 62 66 67 76 86 40 -35 -61 -38 -20 -10 7 13 20 24 23 21 18 14 10 11 12 15 17 18 19 17 9 7 1 -1 5 13 14
49 56 62 73 68 63 56 57 57 58 65 69 65 61 42 -27 -41 -47 -31 -23 -2 14 24 35 43 43 33 19 14 11 16 22 21 27 29 27 17 13 5 6 8 9 10
43 52 60 75 67 59 62 60 60 65 61 60 65 60 49 23 -28 -33 -29 -26 -17 3 14 23 31 43 40 32 23 20 20 24 24 22 23 24 20 18 13 14 12 15 10
38 51 62 65 61 60 65 67 64 67 64 59 59 60 55 37 11 -15 -14 -18 -19 -14 -2 2 16 28 34 33 32 35 34 36 29 28 10 17 17 17 22 21 18 21 23
41 43 46 49 54 64 65 68 61 62 67 65 59 58 57 48 33 16 8 -3 -10 -11 -8 -6 3 15 21 26 34 33 31 32 29 34 18 18 21 24 21 26 29 27 33
Wind_Speed
69 72 77 78 76 78 79 77 74 71 68 63 61 61 64 66 65 56 51 46 50 54 58 66 66 65 63 62 65 69 75 77 85 84 79 78 78 78 78 81 82 83 81
73 75 76 74 74 77 75 73 71 71 65 65 64 66 66 57 56 54 53 54 55 61 65 68 71 71 69 65 65 69 72 74 80 88 81 80 80 77 79 81 80 80 79
71 71 73 73 74 74 73 72 69 68 67 65 63 59 59 60 62 58 55 56 63 69 70 69 68 67 68 68 68 71 71 72 74 79 84 78 78 77 81 81 81 81 80
71 74 77 77 73 73 70 69 68 67 66 65 65 65 66 66 66 63 64 67 69 69 68 64 64 66 68 71 72 74 74 75 75 76 80 82 77 76 79 85 86 82 85
73 78 75 71 69 70 71 70 69 69 66 66 65 65 65 66 63 66 67 66 65 67 68 68 66 68 71 73 77 78 76 75 75 75 76 78 78 76 78 80 86 85 86
76 73 70 71 71 71 69 69 70 69 67 66 67 68 70 68 65 69 71 71 72 73 75 75 75 74 72 68 66 67 68 73 77 77 77 76 76 74 71 71 73 77 85
73 67 70 69 70 69 68 68 68 67 68 70 70 70 70 69 66 72 75 74 76 76 76 77 78 76 73 72 71 66 60 61 65 68 73 68 70 67 67 69 68 69 73
71 67 66 67 66 66 66 64 65 68 70 70 69 69 69 68 69 70 75 74 72 73 74 76 78 78 74 71 71 68 65 59 54 50 50 58 63 68 67 71 77 80 77
69 67 64 62 62 62 60 62 66 68 68 67 66 69 69 70 71 73 75 74 72 74 74 73 75 75 74 71 70 71 65 63 58 39 32 43 55 61 63 68 67 67 73
67 60 57 55 56 55 58 62 65 66 64 65 67 67 70 68 68 70 68 67 72 71 71 71 69 71 73 68 67 67 73 78 78 67 43 31 26 27 36 45 56 63 65
60 56 52 51 49 52 56 61 65 65 63 63 63 64 62 63 63 62 65 66 68 73 73 72 69 60 54 61 68 70 66 66 59 50 43 43 44 31 12 15 20 34 54
59 56 50 47 48 52 57 61 62 62 62 63 64 62 62 59 57 55 58 67 70 74 70 63 56 56 60 61 59 58 56 50 36 29 26 26 23 23 19 16 20 26 29
60 54 48 45 48 52 58 61 60 59 61 61 62 63 59 62 57 58 54 73 64 55 48 48 50 49 49 49 48 47 45 35 33 31 30 27 24 21 14 27 41 34 30
57 51 45 45 49 52 56 55 55 58 58 59 59 60 61 60 57 59 60 50 41 36 37 35 39 38 38 38 38 38 36 36 33 29 27 24 21 17 15 14 6 25 31
51 44 43 44 47 51 52 52 52 54 55 56 56 57 58 57 55 20 42 36 33 32 29 30 30 29 28 28 29 30 31 32 32 29 26 22 18 15 14 16 14 10 5
41 41 44 45 45 47 49 52 45 49 52 51 53 53 48 44 21 37 38 33 32 27 23 24 24 24 25 25 26 25 27 29 31 31 31 31 18 24 22 22 21 18 16
40 43 43 41 43 45 48 51 52 51 47 45 49 51 49 23 38 37 35 29 29 24 21 20 21 23 26 28 28 26 30 31 31 35 37 40 42 38 40 32 27 27 27
40 38 40 40 41 44 48 48 48 53 54 52 49 49 51 52 40 36 33 25 24 25 23 24 26 28 30 32 34 33 31 35 38 38 40 41 43 42 43 41 34 30 28
41 39 39 39 41 44 44 45 47 49 51 51 49 49 55 49 41 37 33 27 26 26 27 29 31 33 34 36 37 36 37 37 39 40 41 41 42 42 42 42 39 32 27
40 38 37 40 43 44 44 44 47 48 49 50 52 52 62 47 44 40 37 33 31 29 30 31 31 30 30 31 32 34 36 38 39 40 43 43 43 42 41 42 42 40 35
35 35 37 40 45 44 43 44 45 45 46 48 53 54 60 53 48 43 41 40 38 37 36 35 34 35 35 35 36 37 38 40 41 41 42 43 44 44 43 42 40 38 38
34 32 35 40 42 43 42 41 43 43 43 46 49 52 54 58 51 46 44 43 43 42 42 42 41 41 41 41 41 41 42 43 43 44 44 44 44 44 45 45 43 43 42
35 33 34 37 39 40 39 40 40 40 41 42 46 49 53 56 54 49 46 44 44 43 43 43 43 43 44 44 44 44 44 44 44 44 44 44 44 45 45 45 45 45 45
34 32 31 34 37 40 40 39 39 38 38 39 41 44 48 51 52 50 48 46 44 44 43 43 43 44 45 45 45 45 46 46 46 46 46 46 46 46 45 45 45 45 45
35 32 31 33 36 39 41 39 39 38 37 37 36 40 41 45 49 49 48 47 45 44 44 43 43 44 45 46 47 48 49 49 49 49 47 47 47 46 46 45 46 44 45
35 32 32 33 34 36 41 41 41 40 37 37 36 36 39 40 44 46 47 46 46 45 44 43 43 45 45 45 47 49 50 50 50 50 48 47 47 47 46 46 47 45 45
Wind_Direction
337 336 335 335 336 336 335 335 335 334 334 333 333 332 331 331 329 328 328 325 323 321 319 310 309 308 307 305 300 293 286 286 285 285 286 285 285 284 285 282 280 278 278
336 337 338 338 338 337 337 337 335 336 336 335 334 332 330 332 332 330 326 322 320 317 315 313 310 307 305 305 302 297 294 291 289 286 287 287 287 286 285 283 283 280 279
339 340 340 338 337 338 338 337 336 337 336 335 334 334 334 332 328 327 325 321 317 314 313 313 312 309 306 303 301 298 297 294 292 289 288 289 288 287 285 283 281 281 280
339 340 339 338 338 339 340 340 339 339 337 336 334 331 331 328 326 324 322 318 316 314 314 314 312 309 305 302 299 297 296 294 293 291 289 287 288 287 285 282 280 279 277
339 339 340 342 342 341 340 341 341 339 339 337 336 335 333 331 330 327 324 322 319 316 313 312 311 308 305 302 299 296 297 295 293 292 291 289 288 288 285 284 281 281 279
338 339 342 342 342 342 342 341 340 341 341 340 339 337 333 331 331 328 324 320 317 313 310 308 307 306 305 305 303 301 299 296 293 292 291 290 289 290 290 287 285 283 279
339 340 342 342 343 343 343 343 343 343 342 340 339 337 335 333 332 328 325 321 316 313 310 308 305 304 304 303 302 302 301 299 295 294 292 292 292 292 291 289 287 285 283
339 339 341 343 343 344 344 345 345 344 343 342 341 340 338 336 334 331 327 323 319 315 311 308 304 302 302 302 301 302 301 302 302 300 297 295 292 289 288 285 281 278 280
338 339 340 343 344 346 347 346 346 345 345 345 345 342 340 337 336 332 329 325 320 315 312 308 304 300 298 299 298 298 302 303 305 302 288 296 294 291 288 287 286 285 282
338 340 342 344 346 347 347 347 348 348 348 347 346 345 342 340 340 338 337 332 323 317 314 308 305 299 293 295 297 298 297 278 285 299 305 308 248 280 286 285 287 285 283
341 341 342 345 348 348 348 348 348 349 349 350 349 349 348 347 345 345 340 335 327 316 309 302 298 304 304 294 287 271 260 266 255 243 233 227 224 215 255 267 273 287 285
340 340 342 345 348 349 349 349 350 350 352 351 352 352 352 353 353 353 350 336 323 303 292 281 289 290 283 277 268 266 263 252 227 215 206 203 200 203 206 305 297 297 289
338 339 342 346 348 350 350 351 353 355 355 355 355 355 356 354 356 355 355 325 296 279 267 272 275 275 272 267 269 262 253 227 226 218 212 204 197 198 198 326 304 303 303
338 341 345 348 349 351 353 356 358 358 359 358 359 358 357 358 358 359 347 291 279 267 267 261 272 268 265 262 267 267 252 255 242 220 208 204 196 176 178 166 137 323 308
343 348 350 353 354 356 358 1 3 5 5 3 4 3 3 2 3 332 290 284 278 270 255 258 268 271 275 285 288 273 269 272 272 247 220 201 175 142 128 112 126 118 144
354 357 357 357 1 2 4 5 13 11 11 12 12 11 13 15 286 289 292 286 287 276 253 264 268 276 286 295 303 291 284 281 282 276 271 272 191 90 89 97 104 115 124
3 1 4 8 9 9 9 9 9 12 16 18 18 18 20 31 294 294 296 286 292 281 268 269 273 284 296 300 300 294 302 300 285 296 306 322 351 36 45 72 91 91 95
8 11 13 16 17 14 12 13 15 14 14 17 21 24 22 316 298 296 297 278 282 293 285 284 287 293 301 303 305 302 296 310 319 319 325 335 350 9 14 36 69 80 88
9 14 18 21 18 16 17 17 18 17 18 20 23 26 21 313 302 299 295 288 284 289 290 291 296 301 304 308 310 309 311 317 324 327 332 333 342 357 9 21 40 70 88
12 18 21 20 17 17 18 19 19 20 21 23 24 25 5 313 313 306 303 296 290 287 291 295 297 296 297 301 305 309 316 321 324 327 334 337 341 349 2 6 16 36 56
14 17 18 18 17 18 20 20 20 22 24 24 23 20 11 328 323 314 311 309 302 298 299 300 302 307 308 308 311 314 320 324 329 329 332 337 344 350 356 9 18 29 33
13 16 16 16 17 19 20 21 22 25 26 25 24 22 16 352 334 327 319 317 317 315 314 314 316 319 320 319 319 321 324 328 331 332 330 332 340 346 352 6 14 8 9
11 13 13 15 16 18 20 20 21 24 26 26 23 20 13 350 348 339 329 324 322 323 325 324 325 324 325 324 326 326 326 325 322 323 325 327 333 338 350 2 6 6 4
7 10 13 16 16 16 17 17 17 21 24 26 23 21 14 4 346 345 344 334 327 324 324 326 327 327 326 327 328 328 329 324 322 324 326 332 337 340 349 354 359 359 357
8 13 16 16 16 16 15 16 14 17 20 22 24 19 18 8 357 346 348 345 338 330 327 326 326 325 327 328 329 329 329 330 332 330 334 339 343 346 350 354 352 357 355
9 13 16 17 17 18 16 16 12 13 18 20 22 20 14 13 2 354 350 346 340 337 333 329 326 326 326 329 329 329 330 331 333 334 337 340 342 346 348 350 349 350 349